Date String (YYYY-MM-DD hh:mm:ss) UTC,Instrument flags,Ambient pressure (hPa),Sample flow (lpm),Bypass flow (lpm),Sample temperature (°C),Ambient temperature (°C),ASC tube jacket temperature (°C),LED temperature (°C),Box temperature (°C),Sample RH (%),Span deviation,Mass concentration (μg/m³),Mass concentration (μg/m³),Mass concentration (μg/m³)
DateTimeUTC,F1_M11,P_M11,Q1_M11,Q2_M11,T1_M11,T2_M11,T3_M11,T4_M11,T5_M11,U1_M11,ZSPAN_M11,X0_M11,X2_M11,X1_M11
2022-07-02 12:00:00,,0828.3,4.99,0.00,29.8,28.6,00.0,38.7,31.6,25.0,0000.0,0009.10,0004.21,0003.45
2022-07-02 12:01:00,,0828.4,5.00,0.00,29.8,28.6,00.0,38.7,31.6,24.9,0000.0,0009.51,0004.25,0003.43
2022-07-02 12:02:00,,0828.4,5.00,0.00,29.8,28.6,00.0,38.7,31.6,24.7,0000.0,0009.80,0004.25,0003.42
2022-07-02 12:03:00,,0828.4,4.99,0.00,29.8,28.6,00.0,38.7,31.6,24.8,0000.0,0009.96,0004.21,0003.40
2022-07-02 12:04:00,,0828.4,5.00,0.00,29.8,28.6,00.0,38.7,31.6,24.8,0000.0,0009.88,0004.15,0003.38
2022-07-02 12:05:00,,0828.5,5.00,0.00,29.8,28.7,00.0,38.7,31.6,24.7,0000.0,0009.64,0004.18,0003.37
2022-07-02 12:06:00,,0828.5,5.00,0.00,29.8,28.7,00.0,38.7,31.7,24.3,0000.0,0009.72,0004.19,0003.35
2022-07-02 12:07:00,,0828.5,4.99,0.00,29.8,28.7,00.0,38.6,31.7,24.0,0000.0,0009.66,0004.19,0003.32
2022-07-02 12:08:00,,0828.5,4.99,0.00,29.8,28.7,00.0,38.7,31.7,24.0,0000.0,0008.81,0004.14,0003.29
2022-07-02 12:09:00,,0828.5,5.00,0.00,29.8,28.7,00.0,38.7,31.7,24.2,0000.0,0008.89,0004.08,0003.26
2022-07-02 12:10:00,,0828.5,5.00,0.00,29.8,28.8,00.0,38.7,31.7,24.4,0000.0,0009.04,0004.05,0003.26
2022-07-02 12:11:00,,0828.5,4.99,0.00,29.9,28.8,00.0,38.7,31.7,24.5,0000.0,0009.02,0004.04,0003.25
2022-07-02 12:12:00,,0828.5,5.01,0.00,29.9,28.8,00.0,38.7,31.8,24.7,0000.0,0008.89,0003.99,0003.24
2022-07-02 12:13:00,,0828.5,5.00,0.00,29.9,28.8,00.0,38.7,31.8,24.7,0000.0,0008.66,0003.94,0003.23
2022-07-02 12:14:00,,0828.5,5.01,0.00,29.9,28.8,00.0,38.7,31.7,24.3,0000.0,0008.40,0003.89,0003.21
2022-07-02 12:15:00,,0828.5,5.00,0.00,29.9,28.8,00.0,38.7,31.7,24.4,0000.0,0008.73,0003.89,0003.19
2022-07-02 12:16:00,,0828.5,5.01,0.00,29.9,28.8,00.0,38.7,31.8,24.4,0000.0,0008.75,0003.86,0003.17
2022-07-02 12:17:00,,0828.5,5.00,0.00,29.9,28.9,00.0,38.7,31.8,24.3,0000.0,0008.75,0003.84,0003.16
2022-07-02 12:18:00,,0828.9,4.99,0.00,29.9,28.9,00.0,38.7,31.9,24.5,0000.0,0008.80,0003.84,0003.18
2022-07-02 12:19:00,,0829.0,4.99,0.00,30.0,28.9,00.0,38.7,31.9,24.8,0000.0,0008.86,0003.88,0003.20
2022-07-02 12:20:00,,0829.0,5.01,0.00,30.0,28.9,00.0,38.7,31.9,25.2,0000.0,0008.69,0003.93,0003.22
2022-07-02 12:21:00,,0828.9,5.00,0.00,30.0,28.9,00.0,38.8,31.9,25.3,0000.0,0008.63,0003.98,0003.23
2022-07-02 12:22:00,,0829.0,5.00,0.00,30.0,29.0,00.0,38.8,31.9,25.4,0000.0,0008.73,0004.02,0003.25
2022-07-02 12:23:00,,0828.9,5.00,0.00,30.0,29.0,00.0,38.8,31.9,25.4,0000.0,0008.47,0004.03,0003.26
2022-07-02 12:24:00,,0828.7,5.00,0.00,30.0,29.0,00.0,38.8,31.9,24.9,0000.0,0008.38,0004.03,0003.27
2022-07-02 12:25:00,,0829.2,5.00,0.00,30.0,29.0,00.0,38.8,31.9,25.0,0000.0,0008.38,0004.06,0003.29
2022-07-02 12:26:00,,0829.1,5.01,0.00,30.0,29.0,00.0,38.8,31.9,25.5,0000.0,0008.04,0004.09,0003.32
2022-07-02 12:27:00,,0829.1,4.99,0.00,30.1,29.0,00.0,38.8,31.9,25.7,0000.0,0008.20,0004.16,0003.36
2022-07-02 12:28:00,,0829.2,5.00,0.00,30.1,29.1,00.0,38.8,32.0,25.7,0000.0,0008.11,0004.18,0003.38
2022-07-02 12:29:00,,0829.2,5.00,0.00,30.1,29.1,00.0,38.8,32.0,25.6,0000.0,0008.21,0004.20,0003.39
2022-07-02 12:30:00,,0829.2,5.00,0.00,30.1,29.1,00.0,38.9,32.0,25.5,0000.0,0008.41,0004.21,0003.41
2022-07-02 12:31:00,,0829.1,5.00,0.00,30.1,29.1,00.0,38.9,32.0,25.5,0000.0,0008.37,0004.22,0003.43
2022-07-02 12:32:00,,0829.2,5.00,0.00,30.1,29.1,00.0,38.9,32.0,25.5,0000.0,0008.33,0004.22,0003.45
2022-07-02 12:33:00,,0828.8,5.01,0.00,30.1,29.1,00.0,38.9,32.0,25.5,0000.0,0008.68,0004.25,0003.47
2022-07-02 12:34:00,,0828.7,5.01,0.00,30.2,29.1,00.0,38.9,32.0,25.6,0000.0,0008.81,0004.30,0003.50
2022-07-02 12:35:00,,0828.7,5.00,0.00,30.2,29.1,00.0,38.9,32.0,26.2,0000.0,0009.07,0004.39,0003.53
2022-07-02 12:36:00,,0829.1,5.00,0.00,30.2,29.1,00.0,38.9,32.0,26.2,0000.0,0009.35,0004.46,0003.55
2022-07-02 12:37:00,,0829.2,5.00,0.00,30.2,29.2,00.0,38.9,32.0,26.2,0000.0,0009.50,0004.51,0003.59
2022-07-02 12:38:00,,0829.3,4.99,0.00,30.2,29.2,00.0,38.9,32.0,26.4,0000.0,0009.89,0004.55,0003.61
2022-07-02 12:39:00,,0829.3,4.99,0.00,30.2,29.2,00.0,39.0,32.0,26.5,0000.0,0012.29,0004.61,0003.63
2022-07-02 12:40:00,,0829.3,5.00,0.00,30.2,29.2,00.0,39.0,32.1,26.8,0000.0,0013.03,0004.66,0003.67
2022-07-02 12:41:00,,0829.3,5.00,0.00,30.2,29.2,00.0,39.0,32.1,26.9,0000.0,0013.21,0004.70,0003.68
2022-07-02 12:42:00,,0829.4,5.01,0.00,30.2,29.2,00.0,39.0,32.1,26.9,0000.0,0014.31,0004.74,0003.69
2022-07-02 12:43:00,,0829.2,5.01,0.00,30.2,29.2,00.0,39.0,32.1,26.8,0000.0,0014.90,0004.74,0003.68
2022-07-02 12:44:00,,0829.3,4.99,0.00,30.3,29.2,00.0,39.0,32.1,26.8,0000.0,0014.54,0004.71,0003.68
2022-07-02 12:45:00,,0829.3,5.00,0.00,30.3,29.2,00.0,39.0,32.1,27.2,0000.0,0014.58,0004.72,0003.69
2022-07-02 12:46:00,,0829.1,5.01,0.00,30.3,29.2,00.0,39.0,32.1,27.3,0000.0,0014.37,0004.66,0003.68
2022-07-02 12:47:00,,0828.8,5.00,0.00,30.3,29.3,00.0,39.1,32.1,27.5,0000.0,0014.23,0004.67,0003.69
2022-07-02 12:48:00,,0828.9,4.99,0.00,30.3,29.3,00.0,39.1,32.2,27.7,0000.0,0014.11,0004.67,0003.69
2022-07-02 12:49:00,,0829.0,4.99,0.00,30.3,29.3,00.0,39.1,32.2,27.0,0000.0,0013.77,0004.65,0003.69
2022-07-02 12:50:00,,0829.0,5.00,0.00,30.3,29.3,00.0,39.1,32.2,27.1,0000.0,0011.73,0004.59,0003.68
2022-07-02 12:51:00,,0829.1,5.00,0.00,30.3,29.3,00.0,39.1,32.2,27.1,0000.0,0010.47,0004.56,0003.67
2022-07-02 12:52:00,,0829.1,4.99,0.00,30.4,29.3,00.0,39.1,32.2,27.3,0000.0,0010.12,0004.54,0003.66
2022-07-02 12:53:00,,0829.1,4.99,0.00,30.4,29.3,00.0,39.1,32.2,27.1,0000.0,0008.99,0004.51,0003.66
2022-07-02 12:54:00,,0829.1,4.99,0.00,30.4,29.3,00.0,39.1,32.2,26.7,0000.0,0008.58,0004.53,0003.66
2022-07-02 12:55:00,,0829.1,5.00,0.00,30.4,29.3,00.0,39.1,32.2,27.0,0000.0,0009.19,0004.52,0003.66
2022-07-02 12:56:00,,0829.2,5.01,0.00,30.4,29.4,00.0,39.2,32.2,27.3,0000.0,0009.11,0004.49,0003.65
2022-07-02 12:57:00,,0829.2,5.01,0.00,30.4,29.4,00.0,39.2,32.3,27.4,0000.0,0009.21,0004.47,0003.64
2022-07-02 12:58:00,,0829.3,4.99,0.00,30.4,29.4,00.0,39.2,32.3,27.5,0000.0,0009.86,0004.48,0003.63
2022-07-02 12:59:00,,0829.3,4.99,0.00,30.4,29.4,00.0,39.2,32.3,27.7,0000.0,0009.82,0004.47,0003.61
